Miscellaneous Local Product
Issued by NWS Hastings, NE

Home | Current Version | Previous Version | Text Only | Print | Product List | Glossary Off
Versions: 1 2 3 4 5 6 7 8 9 10 11 12 13 14 15 16 17 18 19 20 21 22 23 24 25 26 27 28 29 30 31 32 33 34 35 36 37 38 39 40 41 42 43 44 45 46 47 48 49 50

000
AXUS43 KGID 202202
MISGRI

GID CWA HOURLY WEATHER ROUNDUP
NATIONAL WEATHER SERVICE HASTINGS NE
500 PM CDT FRI OCT 20 2017

NOTE: "FAIR" INDICATES FEW OR NO CLOUDS BELOW 12,000 FEET WITH NO
SIGNIFICANT WEATHER AND/OR OBSTRUCTIONS TO VISIBILITY.

...SOUTH CENTRAL NEBRASKA...

CITY           SKY/WX    TMP DP  RH WIND       PRES   REMARKS
GRAND ISLAND   SUNNY     74  58  57 S28G43    29.62S
KEARNEY        SUNNY     75  56  51 S29G43    29.59F
HASTINGS       SUNNY     74  55  51 S28G41    29.64S
ORD            MOSUNNY   75  54  47 S22G40    29.56F
YORK           MOSUNNY   75  59  57 S30G39    29.65F
AURORA         CLOUDY    75  56  51 S25G44    29.63F
LEXINGTON      MOSUNNY   78  53  40 S30G39    29.55F
HOLDREGE       SUNNY     76  53  44 S30G43    29.60S
HEBRON         MOSUNNY   77  57  50 S28G38    29.69F

...NEBRASKA PANHANDLE...

CITY           SKY/WX    TMP DP  RH WIND       PRES   REMARKS
CHADRON        SUNNY     82  33  17 SW13      29.40F
ALLIANCE       SUNNY     75  40  28 S16       29.49S
SCOTTSBLUFF    SUNNY     81  33  17 S15       29.47F
SIDNEY         SUNNY     77  38  24 S13       29.54S

...WESTERN AND NORTH CENTRAL NEBRASKA...

CITY           SKY/WX    TMP DP  RH WIND       PRES   REMARKS
VALENTINE      SUNNY     75  51  43 S21G35    29.47F
AINSWORTH      SUNNY     71  53  52 S17G32    29.51F
ONEILL         MOSUNNY   74  55  51 S22G38    29.55F
BROKEN BOW     SUNNY     73  54  51 S17G30    29.54F
IMPERIAL       SUNNY     77  42  28 S13G22    29.52F
NORTH PLATTE   CLOUDY    74  53  48 S7        29.52F
MCCOOK         SUNNY     80  51  36 S26G39    29.52F

...EASTERN NEBRASKA...

CITY           SKY/WX    TMP DP  RH WIND       PRES   REMARKS
NORFOLK        SUNNY     74  57  55 S24G37    29.59F
SO SIOUX CITY  MOSUNNY   74  59  59 S22G31    29.67S
TEKAMAH        MOSUNNY   78  56  46 S26G39    29.69F
COLUMBUS       SUNNY     77  58  51 S25G35    29.64F
ALBION         PTSUNNY   77  57  50 S30G41    29.61S
OMAHA EPPLEY   PTSUNNY   76  58  53 S24G30    29.73F
OFFUTT AFB     DRIZZLE   73  59  60 SE20G33   29.74S
MILLARD        PTSUNNY   76  60  57 S21G26    29.73S
LINCOLN        CLOUDY    75  59  57 S24G36    29.70F
NEBRASKA CITY  CLOUDY    74  61  63 S23G37    29.78S
BEATRICE       CLOUDY    75  61  61 S21G29    29.73F
FALLS CITY     MOSUNNY   75  58  55 S18G36    29.79F

...NORTHERN KANSAS...

CITY           SKY/WX    TMP DP  RH WIND       PRES   REMARKS
GOODLAND       SUNNY     78  45  30 S26G37    29.54F
HILL CITY      PTSUNNY   78  55  44 S28G48    29.61S
NORTON         CLEAR     79  46  31 S28G39    29.58F
PHILLIPSBURG   SUNNY     79  54  41 S18G31    29.62S
SMITH CENTER   SUNNY     73  55  53 S22G38    29.65F HAZE
HAYS           PTSUNNY   77  57  50 S29G37    29.65F
RUSSELL        PTSUNNY   77  59  53 S29G43    29.66F
CONCORDIA      MOSUNNY   76  59  55 S20G39    29.70F
SALINA         MOSUNNY   79  59  50 S28G39    29.73F
TOPEKA         MOSUNNY   77  60  55 S26G33    29.83F



USA.gov is the U.S. government's official web portal to all federal, state and local government web resources and services.